Date String (YYYY-MM-DD hh:mm:ss) UTC,Instrument flags,Ambient pressure (hPa),Sample flow (lpm),Bypass flow (lpm),Sample temperature (°C),Ambient temperature (°C),ASC tube jacket temperature (°C),LED temperature (°C),Box temperature (°C),Sample RH (%),Span deviation,Mass concentration (μg/m³),Mass concentration (μg/m³),Mass concentration (μg/m³)
DateTimeUTC,F1_M11,P_M11,Q1_M11,Q2_M11,T1_M11,T2_M11,T3_M11,T4_M11,T5_M11,U1_M11,ZSPAN_M11,X0_M11,X2_M11,X1_M11
2022-05-15 15:00:00,,0832.1,5.00,0.00,30.3,29.0,00.0,39.3,32.0,15.5,0000.0,0010.58,0004.03,0002.74
2022-05-15 15:01:00,,0832.1,5.01,0.00,30.4,29.1,00.0,39.3,32.1,15.5,0000.0,0010.52,0004.00,0002.74
2022-05-15 15:02:00,,0832.1,5.00,0.00,30.4,29.2,00.0,39.3,32.1,15.2,0000.0,0010.04,0004.01,0002.72
2022-05-15 15:03:00,,0832.1,4.99,0.00,30.4,29.2,00.0,39.3,32.1,15.4,0000.0,0009.88,0004.04,0002.70
2022-05-15 15:04:00,,0832.1,5.01,0.00,30.4,29.3,00.0,39.3,32.1,14.9,0000.0,0009.63,0003.98,0002.68
2022-05-15 15:05:00,,0832.1,5.00,0.00,30.4,29.3,00.0,39.3,32.2,14.8,0000.0,0009.34,0003.93,0002.66
2022-05-15 15:06:00,,0832.1,5.00,0.00,30.4,29.3,00.0,39.3,32.2,14.8,0000.0,0009.44,0003.92,0002.63
2022-05-15 15:07:00,,0832.1,4.99,0.00,30.4,29.3,00.0,39.3,32.2,14.9,0000.0,0009.89,0003.93,0002.62
2022-05-15 15:08:00,,0832.1,5.00,0.00,30.4,29.4,00.0,39.3,32.2,14.7,0000.0,0010.09,0003.90,0002.59
2022-05-15 15:09:00,,0832.1,5.01,0.00,30.4,29.4,00.0,39.4,32.2,14.9,0000.0,0010.26,0003.92,0002.58
2022-05-15 15:10:00,,0832.1,5.01,0.00,30.4,29.4,00.0,39.4,32.1,15.0,0000.0,0010.68,0003.93,0002.54
2022-05-15 15:11:00,,0832.1,5.00,0.00,30.4,29.4,00.0,39.4,32.1,15.0,0000.0,0010.50,0003.89,0002.52
2022-05-15 15:12:00,,0832.2,4.99,0.00,30.4,29.4,00.0,39.4,32.1,14.7,0000.0,0011.00,0003.90,0002.52
2022-05-15 15:13:00,,0832.2,5.00,0.00,30.4,29.4,00.0,39.4,32.1,14.9,0000.0,0011.92,0003.88,0002.52
2022-05-15 15:14:00,,0832.1,4.99,0.00,30.4,28.3,00.0,39.4,31.9,15.0,0000.0,0011.91,0003.86,0002.51
2022-05-15 15:15:00,,0832.1,5.01,0.00,30.3,26.2,00.0,39.3,31.6,14.9,0000.0,0012.57,0003.91,0002.52
2022-05-15 15:16:00,,0832.1,5.00,0.00,30.2,26.1,00.0,39.3,31.5,15.4,0000.0,0013.44,0003.93,0002.51
2022-05-15 15:17:00,,0832.1,5.01,0.00,30.1,26.6,00.0,39.2,31.6,15.8,0000.0,0013.34,0003.92,0002.51
2022-05-15 15:18:00,,0832.1,5.00,0.00,30.1,27.0,00.0,39.2,31.6,15.2,0000.0,0013.51,0003.88,0002.53
2022-05-15 15:19:00,,0832.1,4.99,0.00,30.0,27.4,00.0,39.1,31.6,15.3,0000.0,0013.48,0003.89,0002.58
2022-05-15 15:20:00,,0832.1,5.00,0.00,30.0,27.7,00.0,39.1,31.6,15.2,0000.0,0013.58,0003.84,0002.60
2022-05-15 15:21:00,,0832.1,5.00,0.00,30.0,27.9,00.0,39.1,31.6,15.3,0000.0,0013.80,0003.81,0002.63
2022-05-15 15:22:00,,0832.1,5.00,0.00,30.0,28.1,00.0,39.0,31.6,15.5,0000.0,0013.74,0003.78,0002.65
2022-05-15 15:23:00,,0832.1,5.00,0.00,30.0,28.3,00.0,39.0,31.7,15.5,0000.0,0013.64,0003.78,0002.66
2022-05-15 15:24:00,,0832.1,5.01,0.00,30.0,28.4,00.0,39.0,31.7,15.2,0000.0,0012.94,0003.83,0002.67
2022-05-15 15:25:00,,0832.2,5.01,0.00,30.0,28.5,00.0,39.0,31.6,15.3,0000.0,0013.71,0003.86,0002.67
2022-05-15 15:26:00,,0832.1,5.00,0.00,30.0,28.6,00.0,39.0,31.6,15.5,0000.0,0013.43,0003.84,0002.68
2022-05-15 15:27:00,,0832.1,4.99,0.00,30.0,28.7,00.0,39.0,31.7,15.3,0000.0,0012.24,0003.86,0002.70
2022-05-15 15:28:00,,0832.1,5.00,0.00,30.0,28.7,00.0,39.0,31.7,15.4,0000.0,0013.17,0003.90,0002.75
2022-05-15 15:29:00,,0832.1,5.01,0.00,30.0,28.8,00.0,39.0,31.7,15.3,0000.0,0013.00,0003.95,0002.76
2022-05-15 15:30:00,,0832.2,5.00,0.00,30.0,28.8,00.0,39.0,31.7,15.3,0000.0,0012.70,0003.96,0002.75
2022-05-15 15:31:00,,0832.1,5.00,0.00,30.0,28.9,00.0,39.0,31.7,15.7,0000.0,0012.56,0003.99,0002.74
2022-05-15 15:32:00,,0832.1,4.99,0.00,30.0,28.9,00.0,39.0,31.8,15.5,0000.0,0012.11,0003.94,0002.73
2022-05-15 15:33:00,,0832.2,5.01,0.00,30.0,28.9,00.0,39.0,31.8,15.8,0000.0,0012.28,0003.98,0002.72
2022-05-15 15:34:00,,0832.2,4.99,0.00,30.0,29.0,00.0,39.0,31.7,15.8,0000.0,0012.63,0003.96,0002.70
2022-05-15 15:35:00,,0832.1,5.00,0.00,30.0,29.0,00.0,39.0,31.8,15.6,0000.0,0013.76,0003.93,0002.69
2022-05-15 15:36:00,,0832.1,5.01,0.00,30.0,29.0,00.0,39.0,31.7,15.6,0000.0,0013.63,0003.89,0002.70
2022-05-15 15:37:00,,0832.1,5.01,0.00,30.0,29.0,00.0,39.0,31.8,15.8,0000.0,0013.79,0003.90,0002.72
2022-05-15 15:38:00,,0832.1,4.98,0.00,30.0,29.0,00.0,39.0,31.8,15.8,0000.0,0014.07,0003.96,0002.76
2022-05-15 15:39:00,,0832.1,5.00,0.00,30.0,29.0,00.0,39.0,31.8,15.8,0000.0,0013.85,0003.98,0002.75
2022-05-15 15:40:00,,0832.1,5.01,0.00,30.0,29.0,00.0,39.0,31.7,15.5,0000.0,0014.31,0003.95,0002.74
2022-05-15 15:41:00,,0832.1,5.00,0.00,30.0,28.9,00.0,39.0,31.7,15.5,0000.0,0015.12,0004.00,0002.74
2022-05-15 15:42:00,,0832.1,5.00,0.00,29.9,27.3,00.0,39.0,31.3,15.7,0000.0,0015.25,0004.00,0002.75
2022-05-15 15:43:00,,0832.2,5.01,0.00,29.8,25.7,00.0,38.9,31.0,16.1,0000.0,0015.04,0004.08,0002.77
2022-05-15 15:44:00,,0832.1,4.99,0.00,29.7,26.1,00.0,38.9,31.2,16.3,0000.0,0015.20,0004.11,0002.76
2022-05-15 15:45:00,,0832.1,5.01,0.00,29.7,26.5,00.0,38.8,31.2,16.0,0000.0,0015.80,0004.16,0002.77
2022-05-15 15:46:00,,0832.1,5.00,0.00,29.7,27.0,00.0,38.8,31.2,16.1,0000.0,0015.03,0004.17,0002.79
2022-05-15 15:47:00,,0832.1,4.99,0.00,29.7,27.3,00.0,38.7,31.3,15.7,0000.0,0014.09,0004.19,0002.78
2022-05-15 15:48:00,,0832.1,5.01,0.00,29.7,27.6,00.0,38.7,31.4,15.8,0000.0,0014.26,0004.19,0002.78
2022-05-15 15:49:00,,0832.1,5.00,0.00,29.7,27.9,00.0,38.7,31.4,15.9,0000.0,0013.98,0004.11,0002.77
2022-05-15 15:50:00,,0832.2,5.00,0.00,29.7,28.1,00.0,38.7,31.4,16.1,0000.0,0015.24,0004.03,0002.74
2022-05-15 15:51:00,,0832.2,5.00,0.00,29.7,28.2,00.0,38.7,31.5,15.6,0000.0,0014.29,0004.01,0002.73
2022-05-15 15:52:00,,0832.2,5.00,0.00,29.8,28.4,00.0,38.7,31.5,15.7,0000.0,0013.86,0003.99,0002.73
2022-05-15 15:53:00,,0832.1,5.00,0.00,29.8,28.4,00.0,38.7,31.5,15.6,0000.0,0013.83,0003.96,0002.72
2022-05-15 15:54:00,,0832.1,5.00,0.00,29.8,28.6,00.0,38.7,31.5,15.9,0000.0,0014.58,0003.95,0002.74
2022-05-15 15:55:00,,0832.2,5.00,0.00,29.8,28.7,00.0,38.7,31.6,15.6,0000.0,0015.12,0003.95,0002.78
2022-05-15 15:56:00,,0832.2,4.99,0.00,29.9,28.8,00.0,38.7,31.6,15.8,0000.0,0014.69,0003.94,0002.78
2022-05-15 15:57:00,,0832.2,5.01,0.00,29.9,28.8,00.0,38.7,31.7,16.3,0000.0,0014.22,0003.92,0002.76
2022-05-15 15:58:00,,0832.2,5.00,0.00,29.9,28.9,00.0,38.7,31.7,16.2,0000.0,0014.09,0003.87,0002.74
2022-05-15 15:59:00,,0832.2,4.99,0.00,29.9,29.0,00.0,38.8,31.8,15.7,0000.0,0014.29,0003.85,0002.70
